Probability
7 10 14 16 16 15 16 16 15 16 16 15 15 16 13 10 8 7 8 8 7 5 3 1 0 0 0 0 1 2 3 3 2 1 0 0 0 1 2 3 2 3 4
9 11 16 19 19 18 17 17 16 17 17 16 16 15 13 10 9 8 7 6 5 4 3 1 0 0 0 1 2 3 3 3 2 1 0 0 0 1 3 4 5 7 9
9 11 17 23 23 22 20 19 18 19 20 20 18 16 14 11 10 11 9 6 4 3 3 2 1 1 2 3 4 4 3 2 1 0 0 0 0 1 4 7 10 14 17
9 10 16 25 28 26 25 23 20 21 22 22 19 17 15 13 14 14 12 8 5 4 4 2 1 2 4 4 4 4 3 2 0 0 0 0 0 3 7 12 15 18 22
11 11 17 27 32 31 29 27 25 24 24 23 20 17 15 14 15 16 13 10 7 6 4 3 3 3 4 4 4 4 3 2 1 0 0 0 0 3 10 15 18 20 22
12 13 20 30 35 34 31 30 29 27 25 24 21 18 16 16 17 18 15 11 9 7 5 4 4 4 4 4 4 3 3 3 3 2 1 1 1 4 9 14 20 23 25
16 17 24 33 38 37 34 33 32 30 27 24 22 19 17 18 20 20 17 14 11 8 7 6 6 6 5 5 5 4 3 4 5 5 3 2 3 5 7 14 22 26 26
19 20 26 34 38 38 37 35 34 33 29 25 23 20 18 18 20 21 19 16 12 9 7 7 8 8 8 8 6 5 4 5 6 6 5 2 3 6 9 16 25 27 26
19 21 26 30 33 33 33 32 32 31 29 25 22 21 19 17 18 19 18 16 13 10 7 8 9 9 9 10 8 6 5 5 5 6 5 3 3 6 12 21 28 29 27
20 23 26 27 28 29 28 28 27 27 26 23 20 19 18 15 15 16 15 14 13 11 10 11 11 10 10 10 10 8 7 7 7 7 6 3 3 6 14 23 30 31 29
20 22 23 24 25 27 28 28 27 27 25 21 17 16 15 13 12 13 13 12 12 10 12 15 16 14 12 11 11 10 10 11 10 9 6 4 3 6 13 22 29 31 30
15 15 17 19 21 23 26 27 28 29 25 20 15 13 13 12 11 12 11 10 10 10 11 14 16 15 13 12 11 11 13 13 12 10 8 7 7 10 16 23 28 29 30
11 11 12 15 17 19 22 25 27 28 24 18 15 14 14 14 13 12 10 9 9 9 9 10 11 11 11 10 10 11 12 14 13 12 9 9 13 17 21 27 30 29 29
12 11 11 13 15 17 18 22 24 24 21 18 16 16 16 15 13 11 10 9 8 8 7 7 7 8 8 9 9 10 11 13 13 11 9 11 17 20 22 26 28 26 26
14 13 12 12 14 16 17 18 18 17 18 18 17 17 16 14 11 9 8 7 7 7 8 8 7 7 8 7 7 7 8 9 10 9 8 11 17 19 20 21 22 22 22
14 14 14 13 13 14 16 16 14 14 15 15 14 14 14 13 10 7 6 6 7 9 9 8 7 7 6 5 5 5 5 5 6 6 6 8 14 17 18 19 19 20 20
14 14 14 13 13 14 15 14 14 13 13 11 10 10 11 11 9 7 6 6 8 9 9 8 6 4 3 3 4 5 4 3 2 2 2 3 7 11 14 16 17 18 19
14 14 14 14 14 15 15 14 14 13 11 10 9 9 10 12 12 9 7 7 9 10 9 7 4 2 2 2 3 3 3 1 0 0 0 0 1 4 7 10 13 15 16
14 13 13 12 12 15 16 15 14 12 11 11 12 12 12 14 15 12 9 8 9 11 11 9 5 2 2 2 2 1 1 1 0 0 0 0 0 1 2 5 8 12 13
12 12 11 9 10 14 17 17 14 12 11 13 15 15 14 15 15 13 11 10 10 11 12 11 6 3 1 1 1 0 0 1 0 0 0 0 0 0 1 2 4 7 9
11 9 8 8 9 12 16 17 15 12 12 14 15 16 15 15 14 13 11 10 10 12 13 10 6 3 2 1 0 0 0 0 0 0 0 0 0 0 0 1 1 2 3
7 7 6 6 8 10 12 14 13 12 13 13 13 12 12 12 13 13 10 8 9 12 12 8 5 3 2 2 1 0 0 0 0 0 0 0 0 0 0 0 0 0 1
4 4 3 3 5 8 10 12 12 11 11 11 10 9 9 9 11 12 10 8 8 9 8 6 5 3 3 2 1 0 0 0 0 0 0 0 0 0 0 0 0 0 0
3 2 1 2 5 7 9 11 11 10 9 9 8 7 7 7 9 10 10 8 7 6 6 5 4 4 3 2 1 0 0 0 0 0 0 0 0 0 0 0 0 0 0
2 1 0 1 3 5 7 9 10 10 9 8 7 7 6 7 7 9 9 8 7 6 6 6 4 4 4 2 0 0 0 0 0 0 0 0 0 0 0 0 0 0 0
1 0 0 0 1 2 5 7 9 10 9 8 7 7 6 6 7 8 8 8 7 6 6 6 4 4 4 2 1 0 0 0 0 0 0 0 0 0 0 0 0 0 0
Wind_Speed
5 8 13 13 13 13 12 12 11 12 11 11 11 12 12 12 12 13 13 13 12 11 10 10 9 8 8 7 7 6 6 7 7 7 7 7 7 8 9 10 9 7 10
10 9 14 13 13 13 12 12 11 11 11 10 10 10 11 11 11 11 11 11 10 10 9 8 7 7 6 6 5 5 5 5 6 6 6 5 6 7 8 9 9 6 10
11 9 12 13 13 13 12 12 11 11 10 10 9 9 9 10 10 10 10 9 9 9 8 7 6 6 5 4 4 4 4 4 4 5 5 3 4 7 8 9 10 10 10
12 8 9 14 13 13 13 12 11 11 10 9 9 9 9 8 8 8 8 8 8 7 7 6 6 6 5 4 4 4 4 4 4 5 3 3 3 6 8 9 10 11 10
10 8 9 14 13 13 13 12 11 10 10 9 9 8 8 7 7 7 7 7 7 6 6 6 6 6 5 5 5 4 5 5 5 4 3 3 3 6 7 9 11 11 11
9 7 10 14 13 12 12 12 11 10 9 9 8 7 7 7 6 6 6 6 6 6 6 6 6 6 6 6 6 6 6 6 5 3 3 3 3 7 8 10 12 12 11
9 6 8 13 13 12 12 11 11 10 9 8 8 7 7 7 6 6 6 5 6 6 6 6 6 6 6 7 7 7 7 7 3 3 3 3 5 8 9 11 12 12 12
9 7 6 11 12 12 12 12 10 9 8 7 7 7 7 6 6 6 6 6 5 5 5 6 6 7 7 7 8 8 8 8 5 4 4 4 7 8 10 11 12 13 13
8 7 5 5 7 9 10 10 9 8 7 7 6 6 6 7 6 6 5 5 5 6 6 6 7 7 8 8 8 8 8 9 5 3 5 4 8 10 11 12 14 14 14
6 5 4 3 3 3 4 7 7 7 7 6 6 6 6 6 6 6 5 5 5 6 6 7 7 7 8 8 8 9 9 8 4 4 3 5 9 11 11 13 15 15 14
6 3 3 3 2 2 2 4 5 6 5 5 4 5 4 2 3 3 4 5 6 6 7 7 7 7 7 8 9 9 8 3 3 3 4 8 10 11 11 12 14 15 15
5 3 3 3 2 2 2 2 2 3 3 2 2 2 2 1 2 3 4 6 6 7 7 7 6 7 5 3 6 7 3 3 3 3 4 9 10 11 12 12 14 14 15
6 4 3 3 3 2 1 1 1 1 2 2 2 2 2 1 1 2 1 3 3 4 3 4 4 3 3 2 2 2 3 3 3 3 4 8 9 12 13 12 13 14 14
5 4 4 4 3 2 1 1 1 1 2 2 2 2 2 1 1 1 1 2 2 1 2 2 2 3 3 4 3 3 3 3 3 3 4 9 9 11 13 13 14 15 15
4 3 3 4 4 3 2 1 1 1 2 2 2 2 3 2 2 2 2 1 2 2 2 2 2 3 3 3 3 3 4 4 3 3 3 8 8 10 12 13 13 14 14
3 3 2 3 3 3 2 1 2 2 2 2 1 2 2 2 2 1 1 1 2 2 2 2 3 3 3 2 3 3 3 3 4 3 3 4 7 8 9 11 11 11 11
3 3 2 2 2 2 2 2 1 2 2 2 2 2 2 2 1 1 2 1 2 2 2 1 2 1 2 2 3 3 3 3 3 3 3 3 3 6 8 9 10 9 9
4 3 2 3 2 1 1 1 0 1 1 2 2 1 2 2 2 2 1 1 2 1 1 1 1 1 2 2 2 3 2 2 3 3 2 2 2 3 5 8 9 9 11
4 3 3 3 2 1 0 0 0 1 1 1 1 1 1 1 2 1 1 1 1 0 1 2 1 1 1 2 2 2 2 2 3 3 3 3 3 3 3 6 8 9 10
4 4 3 2 2 1 1 1 1 1 0 0 1 1 1 1 1 1 1 1 1 0 1 1 1 1 1 2 2 2 2 2 2 2 3 2 2 3 3 4 3 5 9
3 3 2 1 1 1 0 0 0 1 1 1 1 1 1 1 1 1 1 1 1 1 1 1 0 1 1 1 1 2 3 2 2 2 2 2 2 3 2 3 3 3 3
2 2 2 1 1 1 1 1 1 1 1 1 1 1 1 1 1 1 1 1 1 1 1 0 0 0 1 0 1 1 2 4 3 3 2 2 2 2 3 4 3 3 3
2 1 1 1 1 1 1 1 1 2 2 2 1 1 1 1 1 1 1 1 1 1 1 1 1 1 1 1 1 2 1 2 3 3 3 2 2 2 3 3 4 4 5
0 1 1 1 1 1 1 1 1 1 0 2 1 1 2 1 1 1 1 1 1 1 2 2 1 1 1 1 1 1 2 3 2 2 3 2 3 3 3 3 4 4 4
1 1 0 1 2 2 1 0 1 0 1 1 1 2 2 2 1 1 2 1 1 1 2 2 2 2 2 2 2 1 1 1 2 2 3 3 3 3 3 3 3 3 4
1 1 1 1 2 2 2 1 1 1 1 1 1 2 2 2 1 2 2 2 2 2 2 2 2 2 2 2 2 2 2 2 2 2 3 3 3 3 3 3 3 3 4
Wind_Direction
156 160 150 143 135 130 125 122 119 117 116 114 112 112 113 115 118 122 127 131 135 139 141 143 145 145 146 146 146 143 140 139 142 143 146 146 151 158 158 153 151 148 150
156 158 151 144 138 134 130 127 124 122 122 122 121 121 122 123 124 127 131 134 138 141 144 147 150 153 155 155 157 157 157 155 157 160 164 166 169 167 162 158 161 159 152
148 153 149 146 143 139 136 133 130 128 126 125 127 127 127 129 131 133 136 140 145 148 152 156 160 163 165 169 174 178 179 180 180 183 186 184 189 183 171 166 160 155 153
147 149 150 149 148 145 142 140 138 136 134 132 131 132 132 133 136 140 143 146 151 156 162 168 175 178 182 189 198 204 205 209 211 215 207 200 205 190 177 172 165 161 159
143 147 153 152 151 150 149 147 145 144 142 139 137 136 138 141 143 147 151 158 162 167 174 181 187 192 198 202 213 222 224 229 236 238 226 216 211 199 193 180 172 168 167
143 147 155 154 154 152 151 150 148 147 147 145 145 146 145 148 150 152 158 167 174 183 189 193 198 201 207 212 218 225 231 238 249 244 226 216 209 209 203 188 179 174 174
141 146 156 156 154 153 153 152 151 151 151 152 154 155 155 157 160 165 169 178 187 194 201 206 210 213 217 222 228 231 234 239 235 230 224 217 211 213 210 199 187 181 181
138 140 149 155 154 155 156 156 156 156 155 158 162 164 166 167 168 173 181 188 196 200 206 216 222 225 226 230 236 239 241 240 238 234 230 220 216 214 212 201 190 187 187
130 136 142 152 157 161 160 157 156 157 157 160 167 168 171 176 179 183 192 197 206 211 216 224 235 239 238 236 241 245 246 244 237 228 241 227 216 216 213 199 192 189 191
112 121 132 133 132 155 164 162 164 164 164 165 169 171 177 183 187 196 199 208 217 224 229 229 238 245 246 243 244 247 250 251 240 234 233 229 223 222 213 202 197 193 193
99 101 114 109 111 134 164 176 176 170 171 171 184 184 183 193 200 207 208 219 225 232 241 242 246 251 251 252 253 255 254 236 224 234 231 233 228 226 217 205 201 199 198
125 133 120 120 130 134 166 167 174 174 175 184 192 189 185 180 203 211 233 240 242 246 250 250 246 249 250 247 254 254 241 224 224 236 241 238 232 227 221 212 206 204 204
146 145 137 133 125 124 152 162 170 170 179 195 196 187 182 179 211 224 229 254 256 255 255 259 254 247 245 237 234 236 229 224 226 232 243 243 236 230 222 215 211 210 210
133 144 138 141 138 140 146 189 170 179 188 198 212 202 190 199 215 225 224 238 236 242 246 254 252 251 253 245 237 236 233 230 228 228 237 241 238 232 223 217 215 214 214
127 145 149 150 147 145 133 189 162 190 194 202 200 205 196 196 212 221 225 235 244 241 237 248 255 255 249 249 249 244 241 240 240 232 243 242 234 231 228 224 221 221 217
146 154 143 140 147 139 144 174 186 195 194 189 191 198 198 195 205 213 229 234 244 246 237 226 233 240 244 247 254 250 244 243 240 230 230 239 232 231 234 234 230 225 223
148 141 119 123 127 139 158 185 180 187 174 178 200 204 196 193 195 198 218 233 244 244 244 235 252 243 257 262 262 260 251 247 244 234 231 228 234 234 234 237 229 225 228
112 106 101 84 77 91 144 193 204 192 169 188 198 208 203 198 185 181 216 244 243 231 241 241 255 266 265 263 263 262 256 250 249 237 233 227 224 236 238 235 229 225 230
107 101 86 68 61 37 348 286 172 176 190 196 187 196 208 217 198 174 210 241 237 222 259 266 254 234 259 275 261 256 254 246 249 244 236 229 225 227 228 233 234 232 232
99 91 84 70 47 35 10 7 15 18 330 234 193 194 203 221 210 179 212 243 243 218 267 270 269 291 255 262 275 282 268 261 260 238 242 240 232 231 232 233 235 241 240
85 83 68 60 9 34 38 47 8 316 316 321 259 210 203 209 204 200 253 275 222 220 238 262 255 295 306 332 11 324 313 294 276 254 251 249 250 240 235 231 224 225 243
75 67 37 33 23 356 268 193 223 223 254 257 283 314 253 220 219 208 211 226 230 231 264 262 151 2 320 42 124 28 331 327 310 282 267 249 248 245 241 238 225 223 230
69 64 28 346 343 311 329 42 17 23 12 4 334 318 301 254 227 215 211 209 219 189 228 244 191 160 255 282 164 154 167 249 293 302 275 261 258 246 249 246 232 231 230
132 67 34 338 324 324 351 107 103 74 293 271 267 279 297 278 250 231 215 204 206 203 223 240 212 203 196 253 274 213 200 190 210 291 307 289 273 260 254 254 245 238 234
111 86 12 350 325 319 332 159 126 246 252 266 293 315 307 297 279 245 218 217 226 227 234 244 245 224 203 212 221 233 248 242 209 206 276 296 295 268 253 250 248 242 237
84 38 3 358 326 327 333 318 180 226 253 288 305 312 307 305 301 280 237 227 229 229 235 234 235 225 221 223 224 209 203 211 224 212 238 268 277 278 267 256 247 242 236